Location: Nitra
(0.0000°N, 18.0833°E)
Time: 06:08:04
(UTC+01:00)

Meteor 2-14 Rocket - Pass Details

Date: 24 January 2021
Orbit: 938 x 955 km, 82.5° (Epoch: 04 March)

Event Time Altitude Azimuth Distance (km) Brightness Sun altitude
Rises 19:18:39 0° 185° (S) 3,598 7.8 -18.6°
Reaches altitude 10° 19:21:08 10° 185° (S) 2,651 7.1 -19.2°
Maximum altitude 19:27:12 85° 272° (W) 945 4.4 -20.6°
Drops below altitude 10° 19:33:15 10° 2° (N) 2,642 6.5 -22.0°
Enters shadow 19:34:08 - 2° (N) 2,980 6.8 -22.2°
